Volver al catálogo

STARLINK-30888

ActivoComunicacionesVLEO
NORAD 58370·PAYLOAD·🇺🇸 United States

Lanzado Nov 18, 2023 desde Cape Canaveral Space Force Station

Loading…

Próximos Pases (próximas 24 horas)

TLE

ActualizadoSource: CelesTrak SupGP

Época: Sep 14, 2026, 22:28 UTC

1 58370C 23177V   26257.93659722 -.00085620  00000+0 -31002-2 0  2575
2 58370  43.0037   1.5570 0001760 270.3474  83.2775 15.27630334    18

Sigue STARLINK-30888 en tiempo real con AllMySat

Download on the App Store